Flag for Greece Weather past 2 weeks in Peristeri, Greece

Now
77 °F

Clear.


Feels Like: 79 °F
Forecast: 72 / 95 °F
Wind: 5 mph from Northwest

Location: Elefsis Airport

Current Time: Aug 28, 2014 at 12:46:19 AM

Latest Report: Aug 27, 2014 at 11:50 PM


Visibility: 10 mi

Pressure: 29.77 "Hg

Humidity: 65%

Dew point: 64 °F

Location of PeristeriLocation

Historic Weather in Peristeri — Graph

°F

Peristeri temperature yesterday

Maximum temperature yesterday: 95 °F (at 3:50 PM)
Minimum temperature yesterday: 73 °F (at 5:20 AM)
Average temperature yesterday: 83 °F

Past Weeks' High & Low Weather Summary

 TemperatureHumidityPressure
High104 °F (Aug 24, 2:50 PM)74% (Aug 16, 2:20 AM)30.01 "Hg (Aug 16, 2:20 AM)
Low68 °F (Aug 21, 6:20 AM)8% (Aug 24, 3:20 PM)29.65 "Hg (Aug 17, 4:50 PM)
Average85 °F38%29.86 "Hg
* Reported Aug 12 10:20 PM — Aug 27 10:50 PM, Peristeri, Weather by CustomWeather, © 2014

Note: Actual official high and low records may vary slightly from our data, if they occured in-between our weather recording intervals... More about our weather records

Advertising

Peristeri weather history for previous 24 hours

 ConditionsComfort  
Time TempWeatherWind HumidityBarometerVisibility
10:50 PM
Aug 27
79 °FClear.5 mph65%29.77 "Hg10 mi
10:20 PM79 °FClear.5 mph65%29.77 "Hg10 mi
9:20 PM81 °FClear.No wind66%29.77 "Hg10 mi
8:50 PM82 °FSunny.No wind62%29.77 "Hg10 mi
8:20 PM82 °FSunny.7 mph62%29.77 "Hg10 mi
7:50 PM84 °FSunny.7 mph55%29.77 "Hg10 mi
7:20 PM84 °FSunny.8 mph55%29.77 "Hg10 mi
6:50 PM86 °FSunny.9 mph52%29.77 "Hg10 mi
5:20 PM88 °FPassing clouds.13 mph46%29.77 "HgN/A
4:50 PM91 °FPassing clouds.14 mph41%29.77 "HgN/A
4:20 PM93 °FPassing clouds.13 mph32%29.77 "HgN/A
3:50 PM95 °FPassing clouds.13 mph28%29.77 "HgN/A
3:20 PM93 °FPassing clouds.12 mph32%29.77 "HgN/A
2:50 PM93 °FPassing clouds.12 mph32%29.80 "HgN/A
1:50 PM91 °FPassing clouds.12 mph36%29.80 "HgN/A
1:20 PM91 °FPassing clouds.12 mph36%29.83 "HgN/A
12:50 PM91 °FPassing clouds.12 mph38%29.83 "HgN/A
12:20 PM90 °FSunny.12 mph41%29.83 "Hg10 mi
11:50 AM90 °FSunny.8 mph36%29.83 "Hg10 mi
11:20 AM90 °FSunny.8 mph36%29.86 "Hg10 mi
10:50 AM88 °FSunny.6 mph35%29.86 "Hg10 mi
10:20 AM88 °FSunny.3 mph38%29.86 "Hg10 mi
9:50 AM84 °FSunny.3 mph43%29.86 "Hg10 mi
9:20 AM84 °FSunny.No wind40%29.86 "Hg10 mi
8:50 AM82 °FSunny.No wind42%29.86 "Hg10 mi
8:20 AM82 °FSunny.No wind42%29.86 "Hg10 mi
7:50 AM75 °FSunny.No wind57%29.86 "Hg10 mi
7:20 AM73 °FClear.No wind57%29.86 "Hg10 mi
6:50 AM73 °FClear.No wind57%29.83 "Hg10 mi
6:20 AM73 °FClear.No wind57%29.83 "Hg10 mi
5:50 AM75 °FClear.No wind54%29.83 "Hg10 mi
5:20 AM73 °FClear.9 mph57%29.83 "Hg10 mi
4:50 AM75 °FClear.6 mph57%29.83 "Hg10 mi
4:20 AM75 °FClear.No wind57%29.86 "Hg10 mi
3:50 AM75 °FClear.8 mph61%29.86 "Hg10 mi
2:50 AM77 °FClear.8 mph57%29.86 "Hg10 mi
2:20 AM75 °FClear.8 mph61%29.86 "Hg10 mi
1:16 AM77 °FClear.No wind54%29.89 "Hg10 mi
12:50 AM77 °FClear.5 mph54%29.89 "Hg10 mi
12:20 AM79 °FClear.No wind54%29.89 "Hg10 mi
Weather by CustomWeather, © 2014

See weather overviewHow to use our weather pages